Location: Sungai Liu
(2.3667°N, 113.8667°E)
Time: 13:17:31
(UTC+00:00)

NOSS 3-4 (A) - Pass Details

Date: 20 May 2022
Orbit: 837 x 1375 km, 63.4° (Epoch: 28 June)

Event Time Altitude Azimuth Distance (km) Brightness Sun altitude
Rises 12:14:17 0° 207° (SSW) 3,544 6.5 -25.5°
Reaches altitude 10° 12:16:53 10° 208° (SSW) 2,547 5.7 -26.1°
Maximum altitude 12:22:40 74° 293° (WNW) 879 3.3 -27.4°
Drops below altitude 10° 12:28:12 10° 18° (NNE) 2,439 5.6 -28.7°
Sets 12:30:39 0° 20° (NNE) 3,383 6.4 -29.2°
